Regional Weather Roundup
Issued by NWS

Home | Current Version | Previous Version | Graphics & Text | Print | Product List | Glossary On
Versions: 1 2 3 4 5 6 7 8 9 10 11 12 13 14 15 16 17 18 19 20 21 22 23 24 25 26 27 28 29 30 31 32 33 34 35 36 37 38 39 40 41 42 43 44 45 46 47 48 49 50
000
ASUS45 KCYS 282010
RWRWY

WYOMING REGIONAL WEATHER ROUNDUP
NATIONAL WEATHER SERVICE CHEYENNE WY
200 PM MDT THU MAY 28 2015

NOTE:  "FAIR" INDICATES FEW OR NO CLOUDS BELOW 12,000 FEET
WITH NO SIGNIFICANT WEATHER AND/OR OBSTRUCTIONS TO VISIBILITY.

WYZ001-282100-
YELLOWSTONE NATIONAL PARK

CITY           SKY/WX    TMP DP  RH WIND       PRES   REMARKS
LK YELLOWSTONE   N/A     39  37  92 VRB5      30.22S
W YELLOWSTONE  NOT AVBL

$$
WYZ002>013-054>058-071-098>099-282100-
NORTHERN WYOMING

CITY           SKY/WX    TMP DP  RH WIND       PRES   REMARKS
JACKSON        NOT AVBL
CODY           PTSUNNY   59  43  55 NW14G20   30.08F
GREYBULL       FAIR      65  45  48 N12G21    30.03F
WORLAND        CLOUDY    61  46  57 NW12      30.04S
SHERIDAN       PTSUNNY   62  44  51 W6        30.04R
BUFFALO        PTSUNNY   58  42  55 CALM      30.07R
GILLETTE       PTSUNNY   61  49  64 NW14      30.02S
HULETT         CLOUDY    63  52  67 NE5       29.99F
NEWCASTLE      FAIR      70  43  37 W6        29.96F THUNDER

$$
WYZ014>020-022>026-101>103-282100-
CENTRAL WYOMING

CITY           SKY/WX    TMP DP  RH WIND       PRES   REMARKS
BIG PINEY      FAIR      48  40  73 SW6       30.20S
PINEDALE       MOCLDY    50  37  62 SW10G16   30.18F
DUBOIS         FAIR      52  36  54 W21       30.12F
LANDER         PTSUNNY   61  39  44 W7        30.04S
RIVERTON       FAIR      63  37  38 W5        30.05S
CASPER         FAIR      66  42  41 NW10      30.01F
DOUGLAS        FAIR      70  44  39 N9        29.99F

$$
WYZ021-027>030-104>119-282100-
SOUTHERN WYOMING

CITY           SKY/WX    TMP DP  RH WIND       PRES   REMARKS
EVANSTON       FAIR      56  37  49 W18G26    30.18R
KEMMERER       FAIR      50  37  62 NW15      30.20S
FORT BRIDGER   TSTM      48  41  76 NW14G25   30.24R
ROCK SPRINGS   FAIR      56  38  50 W17       30.17R
DIXON          LGT RAIN  51  38  59 S7        30.20R
RAWLINS        FAIR      60  34  37 W14       30.11F
SARATOGA       MOCLDY    61  36  39 W14G23    30.14F
LARAMIE        PTSUNNY   60  37  42 N14G22    30.11F
CHEYENNE       PTSUNNY   63  40  42 W10       30.07S
TORRINGTON     FAIR      73  45  36 W12G21    29.95F
PINE BLUFFS    MOCLDY    63  52  67 NE9       30.03F

$$


USA.gov is the U.S. government's official web portal to all federal, state and local government web resources and services.